NOAA 16 DEB, 42399

Orbit data source: Space-Track

NOAA 16 DEB, 42399 is space debris in SSO originally from a launch on Thu, 21 Sep 2000 UTC launched from the Air Force Western Test Range (AFWTR). Debris objects in space refer to the collection of defunct objects orbiting the Earth. Examples of debris include non-operational satellites, rocket bodies, and fragments generated from explosions, collisions, or faulty payload assembly.

Loading next visibility...
Identifier
42399, 2000-055ST
Orbit
SSO
Country
Flag of USUS
Related business
Manufacturer
Unknown
Mission
Spacecraft
Bus & Motor
Unknown
Mass
Unknown
Launch date (UTC)
2000-09-21 (25 years ago)
Launch vehicle
Unknown
Launch site
Air Force Western Test Range (AFWTR)
Object type
Payload
Rocket body
Debris
Shape & HBR
Unknown shape, 0.1 m
Radar Cross Section
Small (<0.1 m²)

Expand to show TLE details & history
Last TLE update: 2 days ago

TLE from 2 days ago
0 NOAA 16 DEB
1 42399U 00055ST  25289.01659804  .00004733  00000-0  20266-2 0  9991
2 42399  98.6821 355.1959 0010282  27.0619 333.1095 14.25312089494071
Epoch: 2025-10-16T00:23Z
TLE epoch observation values (Epoch: 2025-10-16T00:23:54.070Z)
Latitude
Longitude
-35.56176°
Altitude
803.777 km
Speed
7.455 km/s
True Right ascension
23h 40m 47s
True Declination
0° 00' 00"
Sunlit
Object was in full shadow at epoch
Visualization orbit readout
Latitude
Unknown
Longitude
Unknown
Altitude
Unknown
Speed
Unknown
Apparent Right ascension
Unknown
Apparent Declination
Unknown
Sunlit
N/A
Visualization observer readout
Local Sidereal Time
20:35:07
Azimuth
Unknown
Elevation
Unknown
Doppler factor
Unknown
Orbital elements
Apogee altitude
811.979 km
Perigee altitude
797.208 km
Semi-major axis
7,182.731 km
Eccentricity
0.00103
Inclination
98.6821°
RAAN
355.1959°
Arg. of periapsis
27.0619°
True anomaly
333.05615°
Mean anomaly
333.1095°
Eccentric anomaly
333.08283°
Mean motion
3.5654 °/min
Orbital period
100.97 mins
BSTAR
0.0020266
Loading maneuver chart data...
Computing Atmospheric mass density...

Documentation

Showing up to 5 results
|